SPACEBEE-65 (48626 NORAD) Tracking and Keplerian Element Data

This shows tracking and keplerian element data for the satellite.

Feedback or suggestion? Click here.




ElementValue
Catalog48626
NameSPACEBEE-65
Epoch Orbit2848
Epoch Day210.9137754
Epoch Year2021
RAAN268.798
Inclination97.2534
Eccentricity0.0014064
Argument of Perigee308.0986
Mean Anonmoly51.8978
Mean Motion15.14881897
Decay Rate4.512E-05
L11 48626U 21006ES 21210.91377540 .00004512 00000-0 24530-3 0 9996
L22 48626 97.2534 268.7980 0014064 308.0986 51.8978 15.14881897 28489

Live tracking and technical data element details for SPACEBEE-65 (NORAD 48626). SPACEBEE-65 can be tracked NOW for your location showing map with azimuth and elevation plus other details from your city location.

Track the satellite on the map from your city or location and see movement details for azimuth, elevation, latitude, longitude, range, height, and movement on the map or in text.







IsCatalogInMostPopularTable: catalog: 48626, numindb: 19
Update: records affected: 1



GetName: 48626 SPACEBEE-65

Hit Count: updated at: Sat, 31 Jul 2021 16:04:22 GMT